{"data":{"norad_id":64733,"intl_designator":"2025-144K","name":"STARLINK-34556","alt_names":[],"object_type":"PAYLOAD","status":"ACTIVE","operator":null,"country":"US","launch_date":"2025-07-02","launch_site_code":"AFETR","launch_vehicle":null,"mission":null,"orbit_class":"UNKNOWN","rcs_meters":null,"size_class":null,"mass_kg":null,"dimensions":null,"purposes":["comms"],"wikipedia_slug":null,"has_3d_model":false,"image_url":null,"decayed_at":null,"tle_current":{"epoch":"2026-09-20T13:33:25.231104Z","epoch_age_seconds":122364,"freshness":"FRESH","line1":"1 64733U 25144K   26263.56487536  .00024354  00000+0  72926-3 0  9998","line2":"2 64733  53.1612 349.0929 0001150  50.4366 309.6738 15.34414537 69648","mean_motion":15.34414537,"eccentricity":0.000115,"inclination_deg":53.1612,"raan_deg":349.0929,"arg_perigee_deg":50.4366,"mean_anomaly_deg":309.6738,"bstar":0.00072926,"rev_number":6964,"period_min":93.846868970324,"perigee_km":461.87334186183,"apogee_km":463.44672517954,"semimajor_km":6840.7970335207,"source":"CELESTRAK","updated_at":"2026-09-21T09:00:35.410669Z"}}}